RADUGA-1M 2 [+]

Last updated on Oct. 27, 2020, 5:53 a.m. UTC

1 36358U 10002A   20300.50362762 -.00000195  00000-0  00000-0 0  9990
2 36358   0.0501 255.5131 0003574   1.2179  44.9298  1.00272292 29444
UTC
Height (km)
Latitude
Longitude
Inclination
Orbital Period
UTC large
Height (km)
Speed (km/s)
/
Latitude / Longitude
Inclination (degrees)
Orbital Period (minutes)
Azimuth
Elevation
Range (km)
Doppler Factor
iOS Compass Heading
iOS Angle

Next 30 passes for location: Hong Kong

Rise time Rise Azimuth (degrees) Set time Set Azimuth (degrees) Duration Max altitude (degrees)

No matching passes for this satellites